Overview Statistics Trail Chart Weather Telemetry Raw packets
 

This is the latest recevied weather packets stored in our database for station/object W6MAF. If no packets are shown the sender has not sent any weather packets the latest 10 day(s).

<< 7 8 9 10 11 12 13 >>
Time Temp. Humidity Pressure Rain* Wind** Luminosity Snow
1788620478 17.78° C 21% - 0 mm 3.13 m/s, 228° - -
1788620181 17.22° C 21% - 0 mm 4.47 m/s, 208° - -
1788619883 16.67° C 22% - 0 mm 4.92 m/s, 193° - -
1788619582 16.67° C 23% - 0 mm 4.47 m/s, 212° - -
1788619285 16.11° C 24% - 0 mm 5.36 m/s, 226° - -
1788618689 15.56° C 26% - 0 mm 4.02 m/s, 203° - -
1788618391 15.56° C 26% - 0 mm 4.47 m/s, 226° - -
1788618094 15° C 27% - 0 mm 4.92 m/s, 207° - -
1788617793 14.44° C 28% - 0 mm 4.47 m/s, 200° - -
1788617495 14.44° C 28% - 0 mm 4.47 m/s, 214° - -
1788617198 13.89° C 29% - 0 mm 4.02 m/s, 219° - -
1788616900 13.89° C 30% - 0 mm 4.47 m/s, 218° - -
1788616602 13.89° C 30% - 0 mm 4.92 m/s, 210° - -
1788616304 13.33° C 31% - 0 mm 4.92 m/s, 221° - -
1788616004 13.33° C 32% - 0 mm 4.92 m/s, 226° - -
1788616004 13.33° C 32% - 0 mm 4.92 m/s, 226° - -
1788615706 13.33° C 33% - 0 mm 4.47 m/s, 204° - -
1788615408 13.33° C 34% - 0 mm 4.02 m/s, 214° - -
1788615111 13.33° C - - - 4.92 m/s, 225° - -
1788615110 13.33° C 35% - 0 mm 4.92 m/s, 225° - -
1788614813 13.33° C 35% - 0 mm 4.02 m/s, 208° - -
1788614515 13.33° C 36% - 0 mm 4.47 m/s, 205° - -
1788614214 13.33° C 36% - 0 mm 4.47 m/s, 194° - -
1788613917 13.33° C 37% - 0 mm 4.02 m/s, 210° - -
1788613619 13.33° C 38% - 0 mm 3.58 m/s, 224° - -

* Rain latest hour (hover to see other rain measurements)
** Current wind speed in m/s (hover to see current wind gust speed)